Content
SEND FEEDBACK

Daily
Averages
Monthly
Summary
United Kingdom

OUSTON MOOR, ENGLAND


Home > Europe > United Kingdom > England
Elevation: 485 feet     Latitude: 55 01N     Longitude: 001 52W

WEATHER
 
SELECT A DAY
Number of Records: 291,481;   Date Range: 7/1/96 - 12/16/14
 
SHARE

PRINT THIS DATA

[ ← Previous Day ]
WEATHER ALMANAC - JANUARY 20, 2014
[ Next Day → ]
[ °C ]   °F
Weather ElementAverageHighLow
Temperature38.6 °F44.6 °F (12:50 pm)33.8 °F (3:50 am)
Dewpoint37 °F41 °F (12:20 pm)32 °F (8:20 am)
Humidity94.1 %100 % (12:50 am)81 % (1:50 pm)
Barometer29.72 in29.83 in (6:20 pm)29.53 in (12:50 am)
Wind Speed2.4 mph5.8 mph (1:20 am)
Weather ElementAverage
Visibility6 mi
Wind DirectionENE (66.3 °)

Weather ElementTotal
Precipitation---
Heating Degree Days25.8 (Base 65)
Averaged from 43 records on January 20, 2014
WEATHER CONDITIONS BREAKOUT
WIND DIRECTION BREAKOUT
WEATHER BY HOUR - JANUARY 20, 2014
[ °C ]   °F
Local TimeTemperatureDewpointHumidityBarometerVisibilityWind DirectionWind SpeedGust SpeedPrecipitationEventsConditions
12:50 AM35.6 °F35.6 °F100 %29.53 in6.2 miVariable3.5 mphPartly Cloudy
1:20 AM35.6 °F35.6 °F100 %29.53 in6.2 miSE (130°)5.8 mphPartly Cloudy
1:50 AM35.6 °F35.6 °F100 %29.53 in6.2 miSE (130°)4.6 mphPartly Cloudy
2:20 AM35.6 °F33.8 °F93 %29.53 in6.2 miSSE (150°)4.6 mphPartly Cloudy
2:50 AM35.6 °F33.8 °F93 %29.56 in6.2 miSSE (150°)4.6 mphPartly Cloudy
3:50 AM33.8 °F33.8 °F100 %29.56 in6.2 miSSE (150°)3.5 mphPartly Cloudy
4:50 AM33.8 °F33.8 °F100 %29.59 in6.2 miVariable3.5 mphScattered Clouds
5:20 AM35.6 °F35.6 °F100 %29.59 in6.2 miSouth (180°)4.6 mphScattered Clouds
5:50 AM35.6 °F33.8 °F93 %29.59 in6.2 miVariable3.5 mphScattered Clouds
6:20 AM33.8 °F33.8 °F100 %29.62 in6.2 miSouth (170°)4.6 mphScattered Clouds
6:50 AM33.8 °F33.8 °F100 %29.62 in6.2 miSSE (160°)4.6 mphScattered Clouds
7:20 AM33.8 °F33.8 °F100 %29.65 in6.2 miSouth (180°)5.8 mphScattered Clouds
7:50 AM33.8 °F33.8 °F100 %29.65 in4.3 miSouth (180°)4.6 mphScattered Clouds
8:20 AM33.8 °F32.0 °F93 %29.68 in3.7 miVariable2.3 mphScattered Clouds
8:50 AM33.8 °F33.8 °F100 %29.68 in3.7 miSouth (170°)3.5 mphScattered Clouds
9:20 AM35.6 °F35.6 °F100 %29.71 in4.3 miSouth (170°)4.6 mphMostly Cloudy
9:50 AM37.4 °F35.6 °F93 %29.71 in6.2 miSSE (160°)3.5 mphMostly Cloudy
10:20 AM37.4 °F37.4 °F100 %29.74 in6.2 miVariable3.5 mphMostly Cloudy
10:50 AM39.2 °F39.2 °F100 %29.74 in6.2 miVariable3.5 mphMostly Cloudy
11:20 AM41.0 °F39.2 °F93 %29.74 in6.2 miCalmMostly Cloudy
12:20 PM42.8 °F41.0 °F93 %29.74 in6.2 miSW (220°)3.5 mphMostly Cloudy
12:50 PM44.6 °F41.0 °F87 %29.74 in6.2 miVariable2.3 mphMostly Cloudy
1:20 PM44.6 °F41.0 °F87 %29.74 in6.2 miCalmMostly Cloudy
1:50 PM44.6 °F39.2 °F81 %29.77 in6.2 miCalmMostly Cloudy
2:20 PM44.6 °F41.0 °F87 %29.77 in6.2 miCalmMostly Cloudy
2:50 PM44.6 °F39.2 °F81 %29.77 in6.2 miCalmMostly Cloudy
3:20 PM44.6 °F39.2 °F81 %29.77 in6.2 miCalmMostly Cloudy
3:50 PM42.8 °F39.2 °F87 %29.80 in6.2 miCalmMostly Cloudy
4:20 PM42.8 °F39.2 °F87 %29.80 in6.2 miCalmMostly Cloudy
4:50 PM41.0 °F39.2 °F93 %29.80 in6.2 miVariable2.3 mphMostly Cloudy
5:50 PM41.0 °F39.2 °F93 %29.80 in6.2 miCalmMostly Cloudy
6:20 PM41.0 °F39.2 °F93 %29.83 in6.2 miCalmMostly Cloudy
6:50 PM41.0 °F39.2 °F93 %29.83 in6.2 miCalmMostly Cloudy
7:20 PM41.0 °F39.2 °F93 %29.83 in6.2 miCalmMostly Cloudy
7:50 PM41.0 °F39.2 °F93 %29.83 in6.2 miVariable2.3 mphMostly Cloudy
8:20 PM41.0 °F39.2 °F93 %29.83 in6.2 miCalmMostly Cloudy
8:50 PM39.2 °F37.4 °F93 %29.83 in6.2 miVariable2.3 mphMostly Cloudy
9:20 PM39.2 °F37.4 °F93 %29.83 in6.2 miVariable2.3 mphMostly Cloudy
9:50 PM39.2 °F39.2 °F100 %29.83 in6.2 miSSE (150°)3.5 mphMostly Cloudy
10:20 PM37.4 °F35.6 °F93 %29.83 in6.2 miCalmMostly Cloudy
10:50 PM37.4 °F35.6 °F93 %29.83 in6.2 miVariable2.3 mphMostly Cloudy
11:20 PM37.4 °F37.4 °F100 %29.83 in6.2 miSW (220°)3.5 mphMostly Cloudy
11:50 PM37.4 °F35.6 °F93 %29.83 in6.2 miSouth (180°)2.3 mphMostly Cloudy
Hourly data recorded from EGNT, located miles away from Ouston Moor, England







STORIES FROM OUR PARTNERS